User: anonymous   Login
Location: Bangkok
(13.7500°N, 100.5170°E)
Time: 05:40:47
(UTC+07:00)
Language:

SPOT 1/Viking Rocket - Orbit

View from above orbital plane
View from above orbital plane
View from above satellite
View from above satellite

Ground track
Ground track

The orbit data is extracted from the following two-line orbital elements,

1 16615U 86019C   16211.84045522 -.00000011  00000-0  12584-4 0  9991
2 16615  98.6553 274.8820 0010580 274.2241 212.7896 14.31603709593370
Epoch (UTC): 29 July 2016 20:10:15
Eccentricity: 0.0010580
inclination: 98.6553°
perigee height: 779 km
apogee height: 794 km
right ascension of ascending node: 274.8820°
argument of perigee: 274.2241°
revolutions per day: 14.31603709
mean anomaly at epoch: 212.7896°
orbit number at epoch: 59337

The dashed part of the orbit path shows where the satellite is in the earth's shadow,  

DLR